Theta_e
324 324 324 324 324 325 326 326 326 326 326 326 326 326 326 327 327 327 326 326 327 326 327 326 326 326 326 326 326 325 324 324 323 324 323 322 322 321 321 323 323 322
323 323 323 324 325 326 326 327 327 326 326 326 326 327 328 328 327 327 326 326 325 324 326 326 325 325 325 325 325 325 324 324 323 324 323 323 322 322 322 322 323 323
324 324 324 324 325 326 326 327 327 327 326 327 327 327 328 328 328 327 327 326 325 325 325 325 325 324 324 325 325 324 324 323 323 324 323 323 324 323 323 323 323 323
325 326 325 325 326 326 327 327 327 327 327 327 327 327 327 328 327 327 326 323 326 326 326 325 325 325 324 324 325 324 324 324 324 324 323 323 323 324 324 323 322 324
326 326 326 326 327 327 327 327 326 326 326 326 327 327 326 326 326 326 326 326 326 326 326 325 325 325 325 324 324 324 324 323 324 324 323 322 324 324 324 324 323 322
327 327 327 327 327 326 326 326 326 326 326 326 326 326 326 326 325 325 325 325 325 325 325 325 325 325 325 325 324 324 323 322 322 322 321 321 321 322 323 322 321 320
326 326 326 326 326 326 326 326 326 325 326 326 326 326 326 325 324 325 325 325 325 323 324 324 323 323 324 323 322 322 322 322 321 321 320 321 320 320 321 322 321 319
326 326 326 326 325 325 325 325 326 326 326 326 325 325 325 324 324 324 324 324 323 323 322 322 322 322 322 322 321 320 319 320 319 317 318 318 317 316 316 316 316 315
325 325 325 324 324 324 324 324 325 326 326 325 325 325 324 323 323 323 322 322 322 322 322 320 320 320 320 320 319 319 318 318 318 317 316 315 313 313 314 314 313 313
323 323 323 323 322 323 323 324 324 325 325 324 323 323 321 320 322 322 321 321 320 319 319 319 318 318 318 318 319 318 316 317 317 316 316 316 315 314 313 312 311 311
319 320 320 320 321 322 322 323 323 323 322 321 319 319 318 317 317 318 318 317 317 317 316 316 317 317 317 316 317 318 316 316 317 315 314 314 315 315 307 313 311 311
314 316 316 318 319 319 320 320 319 318 316 316 316 316 315 314 314 312 312 313 314 315 315 315 316 316 315 315 315 314 316 317 316 315 315 314 313 313 312 311 310 309
310 311 312 314 314 315 316 315 314 313 313 313 312 314 314 312 311 311 309 311 312 313 313 314 316 314 313 313 313 312 311 311 312 313 312 310 310 308 307 307 308 309
309 309 309 310 311 311 312 312 311 311 310 310 308 309 311 310 310 309 309 308 311 312 312 311 312 312 311 312 313 312 309 309 309 308 306 306 304 304 303 302 303 305
306 306 306 306 306 307 307 308 308 308 307 307 306 307 307 308 309 308 308 306 307 308 309 309 309 310 310 310 308 307 308 307 306 306 305 303 300 299 299 300 300 301
303 303 302 303 302 303 305 305 305 304 304 302 303 302 303 302 303 305 306 306 304 302 304 305 306 307 301 299 301 306 306 308 306 305 303 301 299 297 295 294 297 298
301 301 300 299 300 300 301 301 301 300 300 300 299 299 301 300 301 303 302 304 304 303 301 302 304 305 297 298 300 301 307 308 305 302 301 299 297 297 296 295 295 295
299 300 299 299 299 298 299 298 299 298 297 298 298 297 298 298 299 302 302 302 303 303 302 302 302 296 296 297 298 298 299 304 304 302 301 301 299 299 300 298 296 295
298 299 299 298 298 297 297 297 297 296 297 297 298 298 297 298 300 301 301 299 300 300 300 300 299 295 295 296 296 297 297 300 304 304 301 299 300 300 300 298 296 293
296 297 298 297 296 295 295 295 295 295 296 297 297 297 298 298 298 298 298 297 297 299 299 298 298 294 294 295 295 296 296 298 305 303 301 300 298 298 297 296 295 295
297 296 296 296 296 294 294 294 295 296 296 296 296 296 297 298 298 297 297 295 296 297 298 297 298 294 294 294 295 296 296 297 303 302 300 299 298 297 296 296 295 295
297 297 296 295 294 293 293 293 294 295 295 295 295 296 297 297 296 296 296 295 295 294 295 297 299 293 293 294 295 295 295 298 299 298 297 297 296 295 296 296 296 297
297 296 295 295 294 294 294 294 294 294 295 296 295 295 295 295 296 295 295 295 294 293 294 296 297 294 292 293 294 295 295 297 297 294 296 296 296 295 294 295 296 297
298 296 295 294 294 294 293 294 294 295 295 293 294 294 293 294 294 293 293 293 293 293 294 294 294 293 291 293 294 294 294 294 294 294 293 293 296 296 295 294 294 288
298 297 296 295 294 294 294 293 294 293 293 292 293 293 293 293 291 292 291 290 292 292 289 292 293 291 290 292 293 294 294 294 294 293 292 292 292 292 291 291 291 287
298 296 295 295 294 294 294 293 293 292 292 291 291 293 293 293 291 291 290 291 290 290 290 292 293 293 291 291 292 293 293 293 293 294 292 291 292 291 288 288 288 288
Wind_Speed
12 10 12 11 12 11 12 12 11 11 11 10 10 11 10 10 10 11 12 13 14 14 13 13 13 13 12 12 12 12 12 12 11 11 11 11 10 11 11 13 14 12
15 14 11 11 11 10 11 11 11 11 11 11 11 10 9 9 10 10 11 13 13 14 14 13 13 13 13 12 12 12 11 11 12 7 9 11 11 11 12 13 13 13
13 14 14 14 13 14 13 11 10 10 10 11 10 10 9 8 9 10 10 12 13 13 13 13 13 13 12 13 12 12 12 11 11 10 10 12 10 10 10 11 12 12
15 14 14 14 13 12 10 10 10 10 10 10 11 9 8 6 9 10 11 13 13 13 12 13 13 12 12 12 12 11 11 12 11 11 11 10 10 11 11 9 10 10
15 14 13 12 11 10 9 10 11 11 11 11 9 9 9 9 9 11 12 13 14 13 12 13 12 12 12 12 12 11 10 9 10 9 9 10 9 10 10 9 10 11
12 12 12 11 12 12 12 11 12 11 12 12 13 10 11 11 13 15 14 14 14 13 13 13 13 13 12 12 12 11 9 9 8 8 8 8 7 7 7 8 9 9
13 13 16 14 16 15 15 14 12 12 13 13 11 13 14 13 15 15 15 15 14 13 14 13 12 12 11 10 10 10 9 9 9 9 10 8 7 8 8 10 9 8
13 11 12 15 14 15 16 15 14 14 14 14 14 15 14 15 15 14 14 14 13 14 13 13 10 11 10 10 10 9 9 8 8 8 8 8 7 9 8 7 7 8
11 12 14 15 16 15 16 16 16 16 14 15 15 14 13 14 14 14 13 13 13 12 12 11 11 10 9 9 10 10 9 9 9 9 9 8 8 8 7 6 8 8
10 11 15 15 16 15 17 17 15 15 14 14 14 12 11 10 11 12 11 11 11 10 10 10 10 10 9 9 10 10 9 9 8 8 7 8 8 8 8 7 7 7
10 12 15 16 17 16 17 17 14 11 8 10 7 7 8 7 8 7 9 9 10 11 10 10 10 10 10 10 10 9 9 8 8 8 8 8 8 8 9 8 8 8
11 13 15 17 16 15 14 11 8 8 7 8 8 10 8 8 9 9 9 10 9 10 10 10 10 11 10 10 9 8 8 9 8 9 9 8 8 8 8 8 8 8
12 13 12 13 12 12 9 7 8 8 8 8 8 9 10 9 9 9 9 9 9 9 10 11 11 10 9 9 9 8 8 8 9 9 8 7 8 8 7 7 8 9
12 11 11 11 9 8 8 8 7 8 9 8 7 9 9 10 11 10 9 9 10 10 10 9 9 9 9 9 8 9 8 9 8 8 6 6 7 8 8 7 7 7
6 9 8 8 9 9 8 8 8 8 7 7 8 10 9 9 9 9 9 10 9 10 9 9 9 9 9 9 9 8 8 9 9 8 8 7 7 6 6 7 7 7
6 7 8 9 9 10 11 9 8 8 8 8 9 8 8 8 8 9 10 11 10 9 8 8 9 7 9 13 12 11 9 8 7 8 9 8 7 7 5 5 5 7
5 6 8 10 10 9 9 8 9 8 8 8 8 8 9 9 8 10 10 9 10 9 9 8 8 7 12 13 14 15 11 8 8 8 9 8 7 8 8 8 7 6
7 7 7 10 10 11 10 8 7 8 9 9 8 9 8 7 9 10 9 8 7 7 9 9 8 8 12 13 13 13 11 9 9 10 9 8 7 8 8 8 9 7
8 9 9 10 11 9 8 7 8 9 9 9 10 8 6 9 9 8 9 7 8 9 9 8 7 9 12 13 13 12 12 10 7 8 9 8 8 8 8 9 9 9
10 10 11 11 8 7 7 8 9 11 9 8 7 7 9 9 8 10 8 8 9 9 8 7 7 9 13 12 12 13 14 11 7 8 8 8 9 8 8 8 10 10
10 10 11 10 9 8 8 9 10 10 10 9 8 9 10 11 10 9 8 7 8 7 7 8 8 11 13 13 13 13 13 12 7 8 8 9 9 9 9 9 9 8
9 10 10 10 8 8 10 13 11 11 10 8 7 7 7 6 6 7 9 9 8 7 7 10 8 11 12 13 13 13 13 9 9 10 9 8 9 9 7 7 8 9
8 9 10 10 9 10 12 13 12 10 8 7 9 9 9 9 9 8 7 7 8 8 9 9 8 10 13 13 14 14 12 9 8 5 7 8 8 7 6 6 6 8
7 9 10 10 10 13 13 11 9 7 9 6 10 10 10 9 6 7 6 7 8 10 10 10 9 9 14 15 15 16 14 8 6 6 7 5 7 7 6 6 6 9
7 8 10 10 13 13 11 11 11 10 7 5 8 7 7 6 5 6 5 5 7 8 8 11 9 8 13 15 16 17 14 8 7 7 7 7 6 6 6 6 7 6
7 9 10 11 12 11 10 10 7 6 8 8 7 7 5 4 5 5 7 7 5 7 8 11 10 8 11 15 15 15 16 9 6 7 9 8 7 7 6 6 6 6
Wind_Direction
203 205 211 213 219 218 216 213 211 210 209 208 210 212 208 207 198 198 205 223 226 228 227 227 227 226 227 228 226 228 231 231 231 229 222 219 223 222 228 230 230 233
208 206 206 211 213 213 216 213 209 208 212 211 215 216 213 201 195 193 202 220 222 223 226 225 224 225 225 226 227 226 228 229 233 218 223 220 226 226 229 229 230 230
211 210 211 206 208 212 211 211 211 213 216 217 217 216 215 196 195 198 206 220 223 222 221 223 224 223 222 224 224 226 229 227 228 225 220 225 224 221 225 231 233 229
215 213 216 219 219 219 214 209 211 217 217 220 217 213 209 192 200 204 210 220 226 225 220 219 221 220 219 220 221 226 225 226 227 225 225 224 224 227 231 228 229 230
213 215 218 220 222 220 214 209 215 216 219 221 221 213 206 206 204 217 215 223 224 226 222 219 218 219 217 217 220 224 223 223 217 217 223 224 218 219 229 227 231 233
212 213 217 219 224 223 223 221 219 218 220 224 223 216 224 210 224 226 223 222 221 221 222 221 219 219 217 218 218 222 220 217 214 212 223 224 222 215 217 219 225 228
213 214 223 225 227 227 230 228 225 223 226 227 223 222 225 219 219 221 221 220 219 218 219 218 215 216 216 216 218 220 217 214 211 213 219 223 219 223 220 225 228 229
211 209 219 226 223 224 225 228 227 226 226 225 225 225 218 216 217 218 218 217 218 219 218 218 213 214 213 213 218 219 219 213 212 208 216 221 217 225 216 216 220 226
209 210 220 221 221 222 223 224 227 227 225 223 222 222 213 215 215 215 212 211 215 217 216 213 214 213 212 213 217 216 217 215 212 209 210 213 214 219 217 214 221 221
209 212 222 222 222 223 223 224 223 226 223 218 218 214 209 208 211 212 208 210 214 212 212 211 212 214 214 214 216 214 214 212 209 211 212 211 212 212 215 211 218 225
212 213 221 221 223 226 226 225 223 222 212 214 210 212 210 202 205 207 207 209 211 213 210 212 212 212 215 216 215 212 210 211 210 209 211 212 214 215 211 209 215 217
219 217 222 223 224 226 226 222 217 215 210 211 204 212 206 199 201 204 205 210 211 212 211 212 212 212 214 215 211 209 212 212 210 210 208 211 213 218 215 211 210 208
222 222 224 225 226 226 225 219 215 212 207 210 197 209 207 198 200 203 208 209 209 208 213 213 215 211 212 212 209 205 206 206 209 213 205 191 208 214 214 210 204 204
224 224 226 226 227 225 222 220 216 213 208 210 195 200 200 194 205 203 205 205 210 211 214 212 211 210 210 209 205 200 197 206 191 203 204 208 207 196 198 197 201 194
225 228 225 226 224 226 223 218 218 211 210 206 205 211 212 210 203 203 201 206 214 214 213 208 209 209 203 200 175 179 184 176 172 190 195 199 204 207 205 193 185 197
224 231 228 229 226 224 225 222 217 214 210 210 211 209 211 207 203 204 206 207 208 212 212 208 211 207 199 198 192 191 191 196 191 188 182 193 192 197 209 217 209 199
228 227 225 227 226 225 220 212 208 207 211 214 212 208 209 205 200 205 210 207 204 199 203 208 211 203 191 198 201 189 187 195 192 164 176 188 191 193 203 187 199 215
228 228 224 227 223 223 214 208 207 207 213 211 208 208 207 197 206 209 205 204 202 201 201 201 208 197 188 197 198 192 181 184 181 168 174 193 196 200 205 198 186 204
227 227 230 229 225 222 213 209 208 214 215 210 213 204 186 203 210 203 208 199 197 200 204 197 202 190 191 191 188 182 181 183 194 195 192 204 207 209 206 195 191 172
224 226 230 229 219 212 210 215 214 214 212 211 203 189 200 206 205 204 199 195 199 200 199 198 204 197 194 191 187 185 187 189 199 195 199 204 199 204 204 201 195 187
222 223 229 225 209 204 203 217 218 218 212 204 197 198 200 203 200 200 200 196 199 201 202 206 213 190 196 193 192 191 192 191 201 203 207 209 210 208 205 197 191 193
219 222 228 221 210 199 207 213 218 214 210 197 196 205 208 202 208 199 200 203 203 200 209 220 211 192 195 193 191 191 187 195 193 197 203 208 210 206 202 200 195 194
213 219 221 218 210 208 217 216 217 216 212 190 199 205 203 206 208 202 204 203 204 209 216 227 221 202 199 197 195 190 185 197 192 195 205 207 209 197 203 206 202 201
209 213 218 216 211 216 219 217 216 214 211 192 202 201 208 209 200 205 207 208 208 218 218 227 233 211 206 208 202 198 194 196 198 202 211 210 213 206 207 210 210 205
203 210 216 215 218 222 217 214 208 208 198 187 206 203 210 192 195 205 211 211 216 221 212 219 230 216 207 210 206 203 199 199 195 201 202 207 198 200 201 208 203 195
200 205 212 214 219 221 215 215 204 197 198 193 198 203 203 198 200 208 214 221 209 212 214 214 216 212 204 209 205 204 197 194 200 201 208 198 194 194 189 201 195 193